Date Time,Air Temp,Sky Temp,Clarity,Light Level,Rain Sensor,Readings
2016-04-24 00:00:03,18.4,-15.2,33.5,0.0,2.3,112
2016-04-24 00:05:03,18.3,-15.8,34.1,0.0,2.3,111
2016-04-24 00:10:03,18.3,-15.4,33.7,0.0,2.3,112
2016-04-24 00:15:03,18.2,-13.8,32.0,0.0,2.3,112
2016-04-24 00:20:03,18.2,-11.1,29.3,0.1,2.3,111
2016-04-24 00:25:03,18.2,-9.4,27.6,0.1,2.3,112
2016-04-24 00:30:03,18.1,-7.6,25.6,0.1,2.3,112
2016-04-24 00:35:03,18.1,-6.4,24.5,0.1,2.3,112
2016-04-24 00:40:03,18.0,-6.2,24.2,0.1,2.3,111
2016-04-24 00:45:03,18.1,-5.7,23.9,0.1,2.3,112
2016-04-24 00:50:03,18.2,-5.2,23.4,0.1,2.3,111
2016-04-24 00:55:03,18.3,-5.2,23.5,0.1,2.3,112
2016-04-24 01:00:03,18.4,-4.9,23.3,0.1,2.3,111
2016-04-24 01:05:03,18.4,-4.7,23.1,0.1,2.3,111
2016-04-24 01:10:03,18.6,-4.2,22.9,0.1,2.3,112
2016-04-24 01:15:03,18.8,-4.9,23.8,0.1,2.3,111
2016-04-24 01:20:03,18.9,-6.5,25.4,0.1,2.3,112
2016-04-24 01:25:03,18.9,-4.5,23.4,0.1,2.3,112
2016-04-24 01:30:03,18.7,-5.6,24.3,0.1,2.3,111
2016-04-24 01:35:03,18.4,-6.2,24.6,0.1,2.3,112
2016-04-24 01:40:03,17.9,-5.0,22.9,0.1,2.3,111
2016-04-24 01:45:03,18.1,-4.7,22.8,0.1,2.3,112
2016-04-24 01:50:03,18.0,-3.0,21.0,0.1,2.3,112
2016-04-24 01:55:03,18.0,-4.1,22.1,0.1,2.3,112
2016-04-24 02:00:03,17.9,-6.1,24.0,0.1,2.3,111
2016-04-24 02:05:03,17.9,-5.9,23.8,0.1,2.3,112
2016-04-24 02:10:03,17.9,-6.0,23.8,0.1,2.3,111
2016-04-24 02:15:03,17.8,-5.1,22.9,0.1,2.3,111
2016-04-24 02:20:03,17.9,-4.9,22.8,0.1,2.3,112
2016-04-24 02:25:03,17.6,-4.7,22.3,0.1,2.3,112
2016-04-24 02:30:03,18.0,-4.3,22.4,0.1,2.2,112
2016-04-24 02:35:03,18.1,-4.1,22.2,0.1,2.3,112
2016-04-24 02:40:03,18.1,-4.3,22.4,0.1,2.3,112
2016-04-24 02:45:03,18.1,-4.6,22.7,0.1,2.3,112
2016-04-24 02:50:03,18.0,-4.6,22.5,0.1,2.3,112
2016-04-24 02:55:03,17.9,-4.4,22.3,0.1,2.3,112
2016-04-24 03:00:03,17.9,-4.1,22.0,0.1,2.3,112
2016-04-24 03:05:03,18.0,-3.9,21.9,0.1,2.3,112
2016-04-24 03:10:03,18.0,-4.0,22.0,0.1,2.3,112
2016-04-24 03:15:03,18.0,-4.3,22.3,0.1,2.3,112
2016-04-24 03:20:03,18.0,-4.4,22.4,0.1,2.3,112
2016-04-24 03:25:03,18.1,-4.0,22.1,0.1,2.3,112
2016-04-24 03:30:03,18.1,-3.7,21.8,0.1,2.3,112
2016-04-24 03:35:03,18.1,-3.9,22.0,0.1,2.3,112
2016-04-24 03:40:03,18.2,-3.8,22.0,0.1,2.3,111
2016-04-24 03:45:03,18.2,-4.4,22.6,0.1,2.3,112
2016-04-24 03:50:03,18.1,-4.6,22.7,0.1,2.3,112
2016-04-24 03:55:03,18.1,-5.3,23.4,0.1,2.3,112
2016-04-24 04:00:03,18.2,-6.5,24.6,0.1,2.3,111
2016-04-24 04:05:03,18.0,-8.2,26.2,0.1,2.3,112
2016-04-24 04:10:03,17.9,-10.2,28.1,0.1,2.3,111
2016-04-24 04:15:03,17.8,-12.7,30.4,0.1,2.3,112
2016-04-24 04:20:03,17.6,-14.1,31.8,0.1,2.3,111
2016-04-24 04:25:03,17.5,-14.3,31.8,0.2,2.3,111
2016-04-24 04:30:03,17.4,-13.3,30.7,0.3,2.3,112
2016-04-24 04:35:03,17.1,-13.4,30.4,0.3,2.3,111
2016-04-24 04:40:03,17.3,-11.4,28.7,0.3,2.3,112
2016-04-24 04:45:03,17.3,-11.6,28.9,0.2,2.3,111
2016-04-24 04:50:03,17.3,-12.8,30.1,0.2,2.3,112
2016-04-24 04:55:03,17.2,-14.2,31.4,0.3,2.3,112
2016-04-24 05:00:03,17.1,-15.1,32.2,0.5,2.3,111
2016-04-24 05:05:03,17.0,-15.6,32.7,0.8,2.3,112
2016-04-24 05:10:03,17.0,-15.8,32.7,1.6,2.3,111
2016-04-24 05:15:03,16.9,-14.0,30.9,3.1,2.3,112
2016-04-24 05:20:03,16.9,-13.9,30.8,5.7,2.3,111
2016-04-24 05:25:03,16.9,-14.5,31.4,9.7,2.3,112
2016-04-24 05:30:03,17.0,-12.4,29.4,14.9,2.3,111
2016-04-24 05:35:03,17.0,-9.0,26.0,20.0,2.3,111
2016-04-24 05:40:03,17.1,-6.9,24.0,23.6,2.3,112
2016-04-24 05:45:03,17.2,-5.9,23.1,25.9,2.3,111
2016-04-24 05:50:03,17.3,-5.8,23.1,27.6,2.3,112
2016-04-24 05:55:03,17.3,-5.7,23.0,28.9,2.3,111
2016-04-24 06:00:03,17.3,-5.7,23.0,29.9,2.3,111
2016-04-24 06:05:02,17.3,-6.0,23.4,30.6,2.3,73
2016-04-24 06:10:02,17.4,-6.2,23.5,31.0,2.3,111
2016-04-24 06:15:02,17.4,-6.3,23.7,31.3,2.3,111
2016-04-24 06:20:02,17.5,-6.4,23.9,31.5,2.3,112
2016-04-24 06:25:02,17.6,-6.7,24.3,31.7,2.3,111
2016-04-24 06:30:02,17.6,-6.9,24.5,31.9,2.3,112
2016-04-24 06:35:02,17.7,-7.0,24.7,32.0,2.3,111
2016-04-24 06:40:02,17.7,-7.0,24.7,32.0,2.3,112
2016-04-24 06:45:02,17.7,-6.7,24.5,32.1,2.3,112
2016-04-24 06:50:02,17.8,-6.6,24.4,32.1,2.3,111
2016-04-24 06:55:02,17.8,-6.1,24.0,32.2,2.3,112
2016-04-24 07:00:02,17.9,-6.3,24.3,32.2,2.3,111
2016-04-24 07:05:02,18.0,-6.7,24.7,32.3,2.3,112
2016-04-24 07:10:02,18.1,-7.2,25.3,32.3,2.3,111
2016-04-24 07:15:02,18.1,-7.9,26.1,32.3,2.3,112
2016-04-24 07:20:02,18.2,-9.2,27.4,32.3,2.3,112
2016-04-24 07:25:02,18.3,-9.0,27.3,32.4,2.3,111
2016-04-24 07:30:02,18.4,-8.2,26.7,32.4,2.3,112
2016-04-24 07:35:02,18.7,-9.5,28.2,32.4,2.3,112
2016-04-24 07:40:02,19.0,-10.1,29.1,32.4,2.3,111
2016-04-24 07:45:02,19.0,-16.2,35.2,32.3,2.3,112
2016-04-24 07:50:02,18.8,-16.9,35.7,32.3,2.3,111
2016-04-24 07:55:02,18.8,-14.3,33.1,32.4,2.3,112
2016-04-24 08:00:02,18.8,-7.1,25.9,32.4,2.3,111
2016-04-24 08:05:02,19.3,-5.5,24.8,32.5,2.3,112
2016-04-24 08:10:02,19.6,-5.5,25.1,32.4,2.2,112
2016-04-24 08:15:02,19.7,-6.5,26.2,32.5,2.2,111
2016-04-24 08:20:02,19.8,-10.5,30.3,32.4,2.3,111
2016-04-24 08:25:02,19.8,-12.6,32.4,32.4,2.3,112
2016-04-24 08:30:02,19.7,-2.5,22.2,32.5,2.3,111
2016-04-24 08:35:02,17.5,0.7,16.8,32.4,2.2,111
2016-04-24 08:40:02,15.8,0.5,15.4,32.4,2.3,111
2016-04-24 08:45:02,15.0,-0.3,15.3,32.2,2.3,112
2016-04-24 08:50:02,14.2,-0.6,14.8,32.3,2.3,112
2016-04-24 08:55:02,13.7,-0.8,14.5,32.4,2.4,112
2016-04-24 09:00:02,13.4,-0.1,13.5,32.5,2.3,111
2016-04-24 09:05:02,13.6,-0.1,13.7,32.5,2.3,112
2016-04-24 09:10:02,13.6,-0.4,14.0,32.5,2.3,111
2016-04-24 09:15:02,13.6,-0.3,13.9,32.4,2.3,113
2016-04-24 09:20:02,13.5,-0.5,14.0,32.4,2.2,112
2016-04-24 09:25:02,13.4,-0.5,13.8,32.4,2.3,112
2016-04-24 09:30:02,13.3,-0.4,13.8,32.4,2.2,111
2016-04-24 09:35:02,13.5,-1.7,15.2,32.5,2.2,112
2016-04-24 09:40:02,14.3,-6.3,20.6,32.5,2.4,111
2016-04-24 09:45:02,17.4,-11.3,28.7,32.5,2.3,112
2016-04-24 09:50:02,18.8,-16.3,35.1,32.5,2.3,112
2016-04-24 09:55:02,19.5,-16.9,36.4,32.5,2.3,111
2016-04-24 10:00:02,20.0,-16.8,36.9,32.5,2.2,111
2016-04-24 10:05:02,20.4,-16.7,37.1,32.5,2.3,112
2016-04-24 10:10:02,20.7,-15.9,36.6,32.5,2.4,111
2016-04-24 10:15:02,20.7,-15.8,36.5,32.5,2.3,112
2016-04-24 10:20:02,21.4,-13.1,34.4,32.5,2.3,112
2016-04-24 10:25:02,21.9,-10.5,32.4,32.5,2.3,111
2016-04-24 10:30:02,22.4,-10.9,33.2,32.5,2.0,112
2016-04-24 10:35:02,22.6,-7.6,30.3,32.5,2.0,112
2016-04-24 10:40:02,22.5,-10.2,32.7,32.6,2.0,112
2016-04-24 10:45:02,22.9,-5.9,28.9,32.6,2.2,111
2016-04-24 10:50:02,23.0,-7.7,30.7,32.6,2.3,112
2016-04-24 10:55:02,23.0,-9.8,32.8,32.6,2.3,111
2016-04-24 11:00:02,22.8,-9.0,31.9,32.6,2.3,112
2016-04-24 11:05:02,23.1,-6.5,29.5,32.6,2.3,112
2016-04-24 11:10:02,23.1,-10.0,33.1,32.5,2.3,111
2016-04-24 11:15:02,22.3,-13.4,35.8,32.5,2.3,111
2016-04-24 11:20:02,22.1,-12.9,35.0,32.6,2.2,111
2016-04-24 11:25:02,22.7,-12.1,34.7,32.6,2.3,112
2016-04-24 11:30:02,23.1,-8.8,32.0,32.6,2.4,111
2016-04-24 11:35:03,23.7,-3.4,27.0,32.6,2.5,112
2016-04-24 11:40:03,24.0,-4.8,28.9,32.6,2.3,112
2016-04-24 11:45:03,23.8,-11.2,35.0,32.5,2.3,111
2016-04-24 11:50:03,23.2,-10.5,33.6,32.6,2.5,112
2016-04-24 11:55:03,23.7,-9.7,33.4,32.6,2.3,112
2016-04-24 12:00:03,24.0,-9.8,33.8,32.6,2.3,112
2016-04-24 12:05:03,24.1,-8.4,32.5,32.6,2.3,112
2016-04-24 12:10:03,24.5,-9.7,34.2,32.6,2.3,111
2016-04-24 12:15:03,24.7,-12.0,36.7,32.6,2.2,111
2016-04-24 12:20:03,25.0,-9.9,34.9,32.6,2.3,112
2016-04-24 12:25:03,25.2,-9.8,35.0,32.6,2.3,111
2016-04-24 12:30:03,25.3,-7.6,32.9,32.6,2.3,112
2016-04-24 12:35:03,25.1,-8.2,33.3,32.6,2.3,112
2016-04-24 12:40:03,25.6,-6.4,32.1,32.6,2.3,112
2016-04-24 12:45:03,25.1,-10.9,36.0,32.6,2.3,111
2016-04-24 12:50:03,25.2,-9.0,34.2,32.6,2.3,112
2016-04-24 12:55:03,26.0,-4.0,30.0,32.6,2.3,111
2016-04-24 13:00:03,25.9,-6.4,32.2,32.5,2.2,112
2016-04-24 13:05:03,25.1,-4.8,29.8,32.5,2.3,111
2016-04-24 13:10:03,24.4,-2.7,27.0,32.6,2.3,112
2016-04-24 13:15:03,23.8,-4.5,28.3,32.6,2.3,111
2016-04-24 13:20:03,24.1,-0.2,24.3,32.6,2.3,112
2016-04-24 13:25:03,24.3,-3.7,28.1,32.6,2.3,111
2016-04-24 13:30:03,24.5,-3.4,27.9,32.6,2.3,112
2016-04-24 13:35:03,24.5,-1.6,26.1,32.6,2.3,111
2016-04-24 13:40:03,24.2,1.3,22.9,32.6,2.3,111
2016-04-24 13:45:03,23.8,0.7,23.1,32.5,2.3,111
2016-04-24 13:50:03,23.3,0.6,22.6,32.5,2.3,111
2016-04-24 13:55:03,23.0,0.5,22.5,32.5,2.3,112
2016-04-24 14:00:03,22.8,0.4,22.5,32.5,2.3,111
2016-04-24 14:05:03,22.8,-0.0,22.8,32.6,2.3,111
2016-04-24 14:10:03,23.3,0.9,22.4,32.6,2.3,111
2016-04-24 14:15:03,24.2,0.1,24.0,32.6,2.3,111
2016-04-24 14:20:03,25.0,-3.7,28.7,32.6,2.3,112
2016-04-24 14:25:03,25.6,1.8,23.8,32.6,2.3,111
2016-04-24 14:30:03,26.3,-0.6,26.9,32.6,2.3,111
2016-04-24 14:35:03,26.1,-1.6,27.7,32.6,2.3,112
2016-04-24 14:40:03,26.6,-3.3,29.9,32.6,2.3,112
2016-04-24 14:45:03,26.0,-1.8,27.7,32.6,2.2,111
2016-04-24 14:50:03,25.7,-1.5,27.2,32.6,2.2,112
2016-04-24 14:55:03,25.1,1.5,23.6,32.6,2.3,111
2016-04-24 15:00:03,24.8,-0.1,24.9,32.5,2.3,112
2016-04-24 15:05:03,24.3,1.0,23.3,32.5,2.3,111
2016-04-24 15:10:03,23.9,-0.1,24.0,32.5,2.3,111
2016-04-24 15:15:03,23.7,-0.2,23.8,32.5,2.3,111
2016-04-24 15:20:03,23.5,0.4,23.1,32.5,2.3,111
2016-04-24 15:25:03,23.4,1.2,22.1,32.5,2.3,111
2016-04-24 15:30:03,23.2,-0.6,23.9,32.5,2.3,112
2016-04-24 15:35:03,23.3,1.1,22.2,32.5,2.3,111
2016-04-24 15:40:03,23.1,0.8,22.3,32.5,2.3,111
2016-04-24 15:45:03,23.1,0.2,22.9,32.5,2.3,112
2016-04-24 15:50:03,22.8,0.2,22.6,32.5,2.4,110
2016-04-24 15:55:03,22.5,-0.3,22.8,32.5,2.5,112
2016-04-24 16:00:03,22.3,0.5,21.8,32.4,2.3,111
2016-04-24 16:05:03,22.2,0.1,22.0,32.4,2.3,112
2016-04-24 16:10:03,22.1,0.5,21.5,32.5,2.3,111
2016-04-24 16:15:03,22.1,0.5,21.6,32.5,2.3,112
2016-04-24 16:20:03,20.5,1.5,19.1,32.5,1.9,111
2016-04-24 16:25:03,19.4,1.0,18.4,32.5,2.0,111
2016-04-24 16:30:03,18.9,2.2,16.8,32.5,2.3,111
2016-04-24 16:35:03,18.4,1.5,16.9,32.5,2.3,111
2016-04-24 16:40:03,18.1,1.8,16.2,32.5,2.3,112
2016-04-24 16:45:03,17.9,1.7,16.1,32.5,2.3,111
2016-04-24 16:50:03,17.7,1.8,16.0,32.5,2.3,111
2016-04-24 16:55:03,17.6,1.1,16.5,32.4,2.5,111
2016-04-24 17:00:03,17.5,1.3,16.2,32.4,2.3,111
2016-04-24 17:05:03,17.5,2.0,15.4,32.4,2.3,111
2016-04-24 17:10:03,17.5,1.5,16.0,32.5,2.3,111
2016-04-24 17:15:03,18.5,-1.2,19.7,32.6,2.4,112
2016-04-24 17:20:03,21.7,0.3,21.3,32.5,2.2,112
2016-04-24 17:25:03,22.8,0.0,22.8,32.5,2.4,111
2016-04-24 17:30:03,23.0,1.7,21.3,32.5,2.6,111
2016-04-24 17:35:03,22.8,1.6,21.2,32.4,2.5,111
2016-04-24 17:40:03,22.5,1.4,21.0,32.4,2.3,111
2016-04-24 17:45:03,22.4,1.2,21.2,32.4,2.3,111
2016-04-24 17:50:03,22.3,0.5,21.8,32.4,2.3,111
2016-04-24 17:55:03,22.4,0.7,21.6,32.4,2.3,111
2016-04-24 18:00:03,22.3,1.0,21.3,32.4,2.3,111
2016-04-24 18:05:03,22.4,0.9,21.5,32.5,2.3,111
2016-04-24 18:10:03,22.4,-0.4,22.8,32.4,2.3,112
2016-04-24 18:15:03,22.3,1.3,20.9,32.2,2.2,111
2016-04-24 18:20:03,21.3,2.0,19.3,32.0,2.1,111
2016-04-24 18:25:03,18.4,2.2,16.3,32.0,2.4,111
2016-04-24 18:30:03,17.4,1.3,16.1,32.1,2.6,111
2016-04-24 18:35:03,17.0,0.8,16.2,32.3,2.3,112
2016-04-24 18:40:03,17.6,-3.2,20.9,32.4,2.3,111
2016-04-24 18:45:03,20.6,-5.6,26.2,32.4,2.3,112
2016-04-24 18:50:03,21.7,-4.1,25.8,32.4,2.2,112
2016-04-24 18:55:03,22.2,-3.1,25.3,32.4,1.9,111
2016-04-24 19:00:03,22.4,-1.8,24.2,32.3,2.0,112
2016-04-24 19:05:03,22.3,0.4,21.9,32.2,2.0,111
2016-04-24 19:10:03,22.3,0.4,21.9,32.1,1.9,111
2016-04-24 19:15:03,22.4,0.1,22.3,32.1,1.9,112
2016-04-24 19:20:03,22.5,-0.5,22.9,32.0,1.9,111
2016-04-24 19:25:03,22.4,0.2,22.2,32.0,1.8,112
2016-04-24 19:30:03,22.4,0.5,21.9,31.9,1.8,111
2016-04-24 19:35:03,22.2,1.5,20.8,31.7,1.8,111
2016-04-24 19:40:03,19.8,2.4,17.4,31.3,2.2,111
2016-04-24 19:45:03,18.0,2.9,15.2,30.8,2.5,112
2016-04-24 19:50:03,17.5,3.4,14.0,30.1,2.4,111
2016-04-24 19:55:03,17.2,3.1,14.1,29.0,2.6,111
2016-04-24 20:00:03,17.0,2.5,14.5,28.2,2.1,111
2016-04-24 20:05:03,16.9,1.5,15.3,29.2,2.5,111
2016-04-24 20:10:03,16.8,0.5,16.2,29.1,2.3,111
2016-04-24 20:15:03,16.6,-1.3,18.0,29.2,2.3,112
2016-04-24 20:20:03,18.4,-6.1,24.5,28.9,2.3,111
2016-04-24 20:25:03,20.3,-8.6,29.0,27.9,2.4,112
2016-04-24 20:30:03,20.8,-9.9,30.7,25.7,2.6,112
2016-04-24 20:35:03,20.8,-10.2,31.0,21.5,2.6,112
2016-04-24 20:40:03,20.8,-10.2,31.0,16.0,2.6,112
2016-04-24 20:45:03,20.7,-10.2,30.9,10.8,2.6,112
2016-04-24 20:50:03,20.6,-10.4,30.9,6.7,2.5,112
2016-04-24 20:55:03,20.4,-11.1,31.5,3.7,2.3,112
2016-04-24 21:00:03,20.2,-10.6,30.8,1.9,2.3,112
2016-04-24 21:05:03,20.2,-10.3,30.5,0.9,2.3,111
2016-04-24 21:10:03,20.1,-11.0,31.1,0.4,2.3,112
2016-04-24 21:15:03,20.1,-7.9,28.0,0.1,2.3,112
2016-04-24 21:20:03,20.2,-1.6,21.8,0.0,2.3,111
2016-04-24 21:25:03,18.2,0.5,17.7,0.0,2.2,111
2016-04-24 21:30:03,16.5,0.8,15.7,0.0,2.3,111
2016-04-24 21:35:03,16.0,-0.9,17.0,0.0,2.3,112
2016-04-24 21:40:03,15.8,-2.9,18.6,0.0,2.3,112
2016-04-24 21:45:03,15.6,0.1,15.5,0.0,2.3,112
2016-04-24 21:50:03,15.6,0.6,15.0,0.0,2.3,111
2016-04-24 21:55:03,15.6,-2.0,17.6,0.0,2.3,112
2016-04-24 22:00:03,15.6,-2.3,17.9,0.0,2.3,112
2016-04-24 22:05:03,15.5,0.3,15.2,0.0,2.3,111
2016-04-24 22:10:03,15.5,0.6,14.9,0.0,2.3,112
2016-04-24 22:15:03,15.6,1.3,14.3,0.0,2.3,110
2016-04-24 22:20:03,15.7,0.8,14.8,0.0,2.3,111
2016-04-24 22:25:03,15.7,1.3,14.5,0.0,2.3,111
2016-04-24 22:30:03,15.8,1.8,14.0,0.0,2.3,111
2016-04-24 22:35:03,15.8,1.4,14.4,0.0,2.3,111
2016-04-24 22:40:03,15.8,1.3,14.5,0.0,2.3,112
2016-04-24 22:45:03,16.2,-3.0,19.2,0.0,2.3,111
2016-04-24 22:50:03,18.9,-7.3,26.1,0.0,2.2,112
2016-04-24 22:55:03,20.0,-7.7,27.8,0.0,2.3,111
2016-04-24 23:00:03,20.3,-7.7,28.1,0.0,2.3,111
2016-04-24 23:05:03,20.3,-8.7,29.0,0.0,2.3,112
2016-04-24 23:10:03,20.3,-7.6,27.8,0.0,2.3,111
2016-04-24 23:15:03,20.4,-8.1,28.5,0.0,2.6,111
2016-04-24 23:20:03,20.4,-8.9,29.3,0.0,2.5,112
2016-04-24 23:25:03,20.2,-9.6,29.8,0.0,2.3,112
2016-04-24 23:30:03,20.0,-11.6,31.6,0.0,2.3,111
2016-04-24 23:35:03,19.8,-12.1,31.9,0.0,2.2,112
2016-04-24 23:40:03,19.5,-12.6,32.1,0.0,2.1,112
2016-04-24 23:45:03,19.4,-13.9,33.3,0.0,2.2,111
2016-04-24 23:50:03,19.4,-14.0,33.4,0.0,2.3,111
2016-04-24 23:55:03,19.2,-14.6,33.8,0.0,2.3,112
